Regional Weather Roundup
Issued by NWS Kansas City/Pleasant Hill, MO

Home | Current Version | Previous Version | Text Only | Print | Product List | Glossary On
Versions: 1 2 3 4 5 6 7 8 9 10 11 12 13 14 15 16 17 18 19 20 21 22 23 24 25 26 27 28 29 30 31 32 33 34 35 36 37 38 39 40 41 42 43 44 45 46 47 48 49 50
000
ASUS43 KEAX 291110
RWREAX

WEATHER ROUNDUP FOR EASTERN KANSAS AND NORTHWEST MISSOURI
NATIONAL WEATHER SERVICE KANSAS CITY/PLEASANT HILL MO
600 AM CDT WED JUL 29 2015

KSZ040-057-103>105-MOZ028-029-037-043-291200-
...KANSAS CITY METROPOLITAN AREA...

CITY           SKY/WX    TMP DP  RH WIND       PRES   REMARKS
K.C. INTL      TSTM      72  69  90 VRB3      30.07R
K.C. DOWNTOWN  LGT RAIN  73  70  90 VRB3      30.05S
LEES SUMMIT    LGT RAIN  72  69  90 CALM      30.08F
OLATHE - IXD   CLOUDY    72  69  90 CALM      30.08F THUNDER
OLATHE - OJC   CLOUDY    70  69  97 SE9       30.05F
LAWRENCE       TSTM      70  68  93 CALM      30.09R

$$

MOZ001>008-011>017-020>025-030>033-038>040-044>046-053-054-291200-
...NORTHERN AND CENTRAL MISSOURI...

CITY           SKY/WX    TMP DP  RH WIND       PRES   REMARKS
ST. JOSEPH     CLOUDY    71  70  96 W8        30.09R
MOSBY          TSTM      70  70 100 E5        30.05F
WARRENSBURG    CLOUDY    70  68  94 NW3       30.07R
WHITEMAN AFB   PTCLDY    72  68  89 CALM      30.05F
CLINTON          N/A     73  70  88 CALM      30.06F
SEDALIA        PTCLDY    73  69  87 NW3       30.06F
WARSAW         NOT AVBL
CHILLICOTHE      N/A     72  71  97 W5        30.06F
KIRKSVILLE     LGT RAIN  71  69  93 NW9       30.06R

$$

MOZ041-047>049-056>058-063>065-088>090-097-291200-
...EASTERN AND SOUTHERN MISSOURI...

CITY           SKY/WX    TMP DP  RH WIND       PRES   REMARKS
ST. LOUIS INTL PTCLDY    83  76  79 W7        29.99S HX  91
SPIRIT OF STL  PTCLDY    79  78  97 W5        29.98S
COLUMBIA       LGT RAIN  73  69  87 NW7       30.04F
JEFFERSON CITY CLEAR     75  68  78 NW6       30.02S
ROLLA            N/A     79  74  84 W14G23    30.04R
OSAGE BEACH    MOCLDY    75  70  83 CALM      30.05S
SPRINGFIELD    CLEAR     75  72  90 CALM      30.05R
BRANSON        CLEAR     75  70  83 CALM      30.07R
JOPLIN         CLEAR     73  72  96 CALM      30.04R
WEST PLAINS    CLEAR     76  73  91 W5        30.06S

$$

IAZ060-094-KSZ022-034>040-054-083-096-NEZ052-066-093-291200-
...KANSAS...SOUTHEAST NEBRASKA AND IOWA...

CITY           SKY/WX    TMP DP  RH WIND       PRES   REMARKS
TOPEKA         TSTM      71  70  96 NE7       30.08R FOG
MANHATTAN      CLOUDY    71  67  87 NE6       30.12R
EMPORIA        CLOUDY    73  68  84 NE17G23   30.09R THUNDER
CHANUTE        CLOUDY    78  72  81 N14G20    30.06R
WICHITA        MOCLDY    76  67  73 N20G25    30.05R
OMAHA          PTCLDY    64  62  93 N6        30.12R
LINCOLN        CLEAR     59  58  96 N6        30.14R
FALLS CITY     CLOUDY    73  68  84 NE9       30.08R
LAMONI           N/A     72  70  93 NW6       30.08F
DES MOINES     CLOUDY    73  69  87 W3        30.08R

$$



USA.gov is the U.S. government's official web portal to all federal, state and local government web resources and services.